Regional Weather Roundup
Issued by NWS Wakefield, VA

Home | Current Version | Previous Version | Graphics & Text | Print | Product List | Glossary On
Versions: 1 2 3 4 5 6 7 8 9 10 11 12 13 14 15 16 17 18 19 20 21 22 23 24 25 26 27
000
ASUS41 KAKQ 191016
RWRAKQ

REGIONAL WEATHER ROUNDUP
NATIONAL WEATHER SERVICE WAKEFIELD VA
600 AM EDT WED JUL 19 2017

Note: "fair" indicates few or no clouds below 12,000 feet with no
significant weather and/or obstructions to visibility. * = Denotes
station may not report precipitation (e.g., rain,snow,etc.),
thunder or fog.

VAZ042-051-052>054-056-191100-
NORTHERN VIRGINIA

CITY           SKY/WX    TMP DP  RH WIND       PRES   REMARKS
WASH NATIONAL  PTCLDY    77  74  90 SW5       30.07R
DULLES         PTCLDY    70  67  90 CALM      30.07S
FORT BELVOIR   CLEAR     72  71  96 CALM      30.07R FOG
QUANTICO       CLEAR     74  69  85 N3        30.07R
FREDERICKSBRG* CLEAR     71  71 100 CALM      30.06S
STAFFORD*      CLEAR     67  67 100 NW3       30.11R
WARRENTON      FOG       65  62  89 CALM      30.08R VSB 1
CULPEPER*      CLEAR     66  66 100 CALM      30.09S FOG
MANASSAS*      CLEAR     69  68  96 CALM      30.08R
LEESBURG*      CLEAR     72  70  94 CALM      30.08F
WINCHESTER     CLEAR     64  63  94 CALM      30.10S
FRONT ROYAL*   SUNNY     64  63  94 SW3       30.10S
LURAY*         PTSUNNY   63  63 100 CALM      30.12S FOG
$$

VAZ048-049-060>072-079>083-191100-
CENTRAL AND SOUTH CENTRAL VIRGINIA

CITY           SKY/WX    TMP DP  RH WIND       PRES   REMARKS
RICHMOND       PTCLDY    68  67  96 S6        30.08S
CHESTERFIELD*  FAIR      67  64  90 W3        30.09S
PETERSBURG*    CLEAR     64  64 100 CALM      30.09S
HANOVER        CLEAR     68  65  90 CALM      30.09S
TAPPAHANNOCK*  CLEAR     71  71 100 SW3       30.08S FOG
QUINTON*       FAIR      70  70 100 CALM      30.08R
CHARLOTTSVILLE CLEAR     67  64  90 CALM      30.09S
GORDONSVILLE*  SUNNY     64  64  99 CALM      30.08S
ORANGE*        CLEAR     64  63  94 CALM      30.08S
LOUISA*        CLEAR     66  64  94 SW3       30.08S
BUMPASS*       FAIR      66  66 100 SW3       30.08S
FARMVILLE*     PTCLDY    64  62  93 CALM      30.09S FOG
CREWE*         FAIR      63  59  87 CALM      30.10R
FORT PICKETT*  FAIR     N/A N/A N/A CALM      30.10S
CHASE CITY*    FAIR      65  65  99 CALM      30.10F
CLARKSVILLE*   FAIR      63  63 100 CALM      30.10S
SOUTH HILL*    CLEAR     65  65 100 CALM      30.16R
LAWRENCEVILLE* FAIR      66  65  97 CALM      30.10R
EMPORIA*       CLEAR     66  66 100 CALM      30.10S FOG
$$

VAZ088>098-191100-
SOUTHEAST VIRGINIA

CITY           SKY/WX    TMP DP  RH WIND       PRES   REMARKS
NORFOLK        CLEAR     74  72  93 SW5       30.08F
VIRGINIA BEACH PTCLDY    73  70  90 SW5       30.07F
NORFOLK NAVAL  PTCLDY    75  71  87 W6        30.09S
WEST POINT*    CLEAR     70  68  94 CALM      30.09S
SALUDA*        FAIR      72  72 100 CALM      30.07S
NEWPORT NEWS   CLEAR     74  71  91 SW5       30.08S
LANGLEY AFB    CLOUDY    74  72  95 SW6       30.07F
FORT EUSTIS    PTCLDY    73  71  94 SW3       30.06S
WILLIAMSBURG*  CLEAR     73  73 100 CALM      30.09S
HR EXEC AP*    FAIR      68  64  88 CALM      30.07S
FRANKLIN*      CLEAR     72  70  94 CALM      30.09S
US460-WAKEFLD  FOG       71  71 100 CALM      30.09R VSB 1/2
$$

VAZ020-022-025-037-045-191100-
WEST CENTRAL AND SOUTHWEST VIRGINIA

CITY           SKY/WX    TMP DP  RH WIND       PRES   REMARKS
STAUNTON*      FOG       61  61 100 CALM      30.16S VSB 1/2
WAYNESBORO*    SUNNY     62  62 100 CALM      30.15S
HOT SPRINGS VA CLEAR     64  52  63 CALM      30.27S
LYNCHBURG      CLEAR     63  63 100 CALM      30.12S FOG
DANVILLE       PTCLDY    63  63 100 SW3       30.11S FOG
SOUTH BOSTON*  CLOUDY    64  63  95 CALM      30.11R VSB 1/2
MARTINSVILLE   CLEAR     61  60  97 CALM      30.16R FOG
ROANOKE        CLEAR     66  63  90 CALM      30.16S
BLACKSBURG     FOG       62  61  97 CALM      30.22S VSB 3/4
DUBLIN*        CLOUDY    62  59  90 CALM      30.21R FOG
MARION*        CLEAR     63  59  88 CALM      30.24S
HILLSVILLE*    CLEAR     63  59  87 CALM      30.21R
RICHLANDS*     FAIR      67  60  78 SE3       30.22S
WISE*          CLEAR     64  64 100 CALM      30.24R
ABINGDON*      CLEAR     67  66  95 CALM      30.19S
$$

MDZ021>025-VAZ099-100-191100-
SOUTHERN MARYLAND AND THE DELMARVA PENINSULA

CITY           SKY/WX    TMP DP  RH WIND       PRES   REMARKS
PATUXENT RIVER PTCLDY    74  71  91 CALM      30.06S
BAY BRIDGE APT CLEAR     77  73  88 SW5       30.06S
LEONARDTOWN    NOT AVBL
DOVER          PTCLDY    73  73 100 S3        30.06R
GEORGETOWN     PTCLDY    74  72  93 CALM      30.08R
EASTON         PTCLDY    75  72  88 CALM      30.10S
CAMBRIDGE      CLEAR     72  72 100 CALM      30.07R FOG
SALISBURY      NOT AVBL
OCEAN CITY     CLOUDY    75  74  96 CALM      30.07S
WALLOPS ISLAND CLOUDY    74  74 100 S6        30.08S
ACCOMACK*      CLOUDY    73  73  97 CALM      30.08R
$$

NCZ012>017-030>032-191100-
NORTH CENTRAL AND EASTERN NORTH CAROLINA

CITY           SKY/WX    TMP DP  RH WIND       PRES   REMARKS
ROANOKE RAPIDS FAIR      70  70 100 CALM      30.09S
RALEIGH        MOCLDY    68  66  93 CALM      30.11S
ELIZABETH CITY CLEAR     73  73 100 CALM      30.09S
AHOSKIE*         N/A     69  68  99 CALM      30.09S
EDENTON*       CLEAR     73  71  94 CALM      30.09S
CURRITUCK*     CLOUDY   N/A N/A N/A CALM      30.09F
KILL DEVIL HLS CLEAR     73  73 100 CALM      30.08S
MANTEO         CLEAR     71  70  97 CALM      30.10S
CAPE HATTERAS  PTCLDY    73  71  93 CALM      30.10R
TARBORO*       NOT AVBL
GOLDSBORO      CLOUDY    72  72 100 CALM      30.08R
WASHINGTON     CLEAR     70  69  97 CALM      30.09S
GREENVILLE     CLEAR     70  70 100 CALM      30.10F
NEW BERN       CLEAR     69  69 100 SE3       30.11R
WILMINGTON     CLEAR     70  70 100 NE3       30.09R
$$

VAZ048-191100-
ELSEWHERE

CITY           SKY/WX    TMP DP  RH WIND       PRES   REMARKS
HARRISBURG PA  PTCLDY    73  69  87 NW6       30.07R
BALTIMORE      PTCLDY    73  72  96 CALM      30.06R FOG
ANNAPOLIS      CLEAR     73  32  22 CALM      30.05S
ANDREWS AFB    CLEAR     70  69  97 CALM      30.07R
PHILADELPHIA   PTCLDY    76  73  91 SW5       30.06S
HENDERSON NC   CLEAR     63  62  96 W3        30.11S
GREENSBORO     CLOUDY    69  67  93 CALM      30.12S
ROCKY MOUNT    CLEAR     69  69 100 CALM      30.10R FOG
$$

VAZ100-191100-
MARINE

STATION/POSITION TIME  TEMP    WIND        PRES    WAVE   SWELL
                       AIR SEA DIR/SP/G            HT/PER HT/PER
                 (UTC) (F)     (DEG/KT/KT) (MB)    (FT/S) (FT/S)
BRANDYWINE LGT   0948          190/ 10/ 10   N/A
CAPE MAY NJ      0942   73 74  170/  5/  7 1017.8S
LEWES DE         0948   75 72  200/  3/  5 1018.1R
15NM E FENWICK I 0950   77 77  190/ 10/ 10 1018.7F   2/ 8   2/ 8
OCEAN-CITY-INLET 0948   73 71  200/  3/  4 1018.6S
WACHAPREAGUE VA  0948   76 81  230/  3/  5 1018.4R
THOMAS POINT MD  1000   78 82  250/  4/  4   N/A
GOOSES REEF MD   1000   79 82  210/  4/  6 1018.7    1
COVE POINT MD    0948   76     210/  5/  6 1018.5S
SOLOMONS ISLAND  0942   76 84  210/  5/  5   N/A
BISHOPS HEAD MD  0948   79 84  200/  6/  7 1018.1S
PINEY POINT MD   0936          230/  5/  6   N/A
POTOMAC MD       1000   77 83  230/  8/ 10 1017.2    1
CAMBRIDGE MD     0948   76 85              1018.8R
LEWISETTA VA     0948   75 85  210/  6/  7 1017.9F
RAPPAHANNOCK LGT 0936          230/  9/ 10 1018.9S
STINGRAY PT      1000   77 83  270/  8/ 12 1018.6    1/ 2
YORK RVR RNG VA  0948   76     240/  9/ 11 1018.7S
YORKTOWN VA      0948   74 82  230/  5/  9 1018.1R
JAMESTOWN VA     1000      85  220/  6/  8   N/A     0
DOMINION TERM VA 0948   76     240/  7/  9 1018.5S
KIPTOPEKE VA     0936      78  240/  9/ 11   N/A
CHES BAY BRIDGE  0936   76 78  230/  9/ 11 1018.3F
CAPE HENRY VA    0936   74     220/  6/  8   N/A
WILLOUBY STN VA  0936   75     230/  8/  9 1018.4F
S CRANEY ISL VA  0936   74     230/  5/  6 1018.3F
CAPE HENRY BUOY  1000      74                N/A     2/17   2/17
1ST LANDING BUOY 1000   77 80              1018.5    1/ 3
64NM E OF VA BCH 0950   78 79  280/  8/ 10 1019.2S   2/ 6   2/ 6
DUCK PIER NC     0936   77 61  280/  4/  4 1018.4F
44100 DUCK FRF   0935      76                N/A     2/15   2/15
OREGON INLET NC  0936   75 75  290/  3/  4 1019.1R
HATTERAS NC      0936   77 78  230/  4/  5 1019.0R
DIAMOND SHLS NC  0950   78 82  290/  4/  6 1019.1R   3/ 9   2/ 9
CAPE LOOKOUT NC  1000   76      40/  3/  3 1019.0R
$$




USA.gov is the U.S. government's official web portal to all federal, state and local government web resources and services.